User: anonymous   Login
Location: Unspecified
(0.0000°N, 0.0000°E)
Time: 20:11:15
(UTC+00:00)
Language:

GEESAT 2-11 - Orbit

View from above orbital plane
View from above orbital plane
View from above satellite
View from above satellite

Ground track
Ground track

The orbit is defined by the following mean orbital elements,

1 58915U          26145.39249389 +.00000000 +00000-0 +22957-3 0 00004
2 58915  49.9995  99.5428 0019532  24.3345 335.8511 14.83143705    05
Epoch (UTC): 25 May 2026 09:25:11
Eccentricity: 0.0019532
inclination: 49.9995°
perigee height: 606 km
apogee height: 633 km
right ascension of ascending node: 99.5428°
argument of perigee: 24.3345°
revolutions per day: 14.83143705
mean anomaly at epoch: 335.8511°

The dashed part of the orbit path shows where the satellite is in the earth's shadow,  

DLR